Lid_Strength_Index
0 1 1 1 1 1 1 1 0 0 0 0 0 0 0 0 1 1 1 1 1 2
0 0 1 0 -0 0 0 0 0 0 0 0 0 0 0 1 1 1 1 1 1 1
-0 -0 -0 0 1 0 0 1 1 1 1 1 2 2 2 2 2 2 1 1 1 1
0 0 0 0 0 1 1 1 2 2 3 3 3 3 3 3 3 3 3 3 3 3
0 0 0 1 1 1 2 2 3 4 3 4 4 4 5 6 6 6 6 6 5 5
1 1 1 1 1 2 3 4 4 4 4 5 5 6 6 6 6 6 6 6 6 6
1 1 1 2 2 3 3 4 4 5 5 6 6 5 5 6 6 5 5 5 5 6
1 1 2 3 3 3 3 4 5 6 6 5 5 5 6 6 6 6 6 5 5 5
2 3 3 3 3 4 4 5 5 5 5 5 5 7 7 6 6 5 5 6 6 5
3 4 4 4 4 5 5 5 5 5 5 6 6 7 7 6 5 5 5 5 5 5
4 5 5 5 6 6 6 6 6 5 5 6 5 7 8 7 6 5 5 5 5 5
7 6 6 7 7 6 6 6 5 5 5 5 5 6 7 7 5 5 4 4 4 4
8 7 8 7 6 6 6 6 5 5 4 5 4 6 7 7 5 6 5 4 4 5
9 8 8 6 7 6 6 6 6 5 4 4 4 4 8 8 7 6 6 6 5 4